• In Czech Republic
  • List of Countries
  • For 7 days
  • Water Temperature
  • Satellite Maps
  • Weather Map
  • Weather Widgets
  • user-avatar
    Login

    Hourly Weather Bamenda

    Today, 21 October, Saturday

    Time Temperature Precipitation Wind Pressure Humidity
    00:00 +19°C° 0.1 mm 1 mps 642 mmHg 90%
    01:00 +18°C° 0.1 mm 1 mps 642 mmHg 90%
    02:00 +18°C° 0 mm 1 mps 642 mmHg 90%
    03:00 +18°C° 0 mm 1 mps 641 mmHg 89%
    04:00 +18°C° 0 mm 1 mps 641 mmHg 89%
    05:00 +18°C° 0 mm 1 mps 642 mmHg 88%
    06:00 +19°C° 0 mm 1 mps 642 mmHg 87%
    07:00 +19°C° 0 mm 1 mps 642 mmHg 87%
    08:00 +21°C° 0 mm 1 mps 643 mmHg 78%
    09:00 +23°C° 0 mm 1 mps 644 mmHg 69%
    10:00 +26°C° 0 mm 1 mps 645 mmHg 60%
    11:00 +26°C° 0 mm 2 mps 645 mmHg 58%
    12:00 +27°C° 0 mm 2 mps 644 mmHg 56%
    13:00 +27°C° 0 mm 2 mps 643 mmHg 54%
    14:00 +27°C° 0.3 mm 2 mps 643 mmHg 59%
    15:00 +26°C° 0.3 mm 1 mps 642 mmHg 64%
    16:00 +25°C° 0.3 mm 1 mps 641 mmHg 69%
    17:00 +23°C° 0.4 mm 1 mps 641 mmHg 75%
    18:00 +22°C° 0.4 mm 1 mps 641 mmHg 82%
    19:00 +18°C° 0.4 mm 0 mps 641 mmHg 88%
    20:00 +18°C° 0.1 mm 0 mps 642 mmHg 89%
    21:00 +20°C° 0.1 mm 1 mps 642 mmHg 90%
    22:00 +19°C° 0.1 mm 1 mps 642 mmHg 90%
    23:00 +19°C° 0 mm 1 mps 642 mmHg 91%

    Tomorrow, 22 October, Sunday

    Time Temperature Precipitation Wind Pressure Humidity
    00:00 +19°C° 0 mm 1 mps 642 mmHg 91%
    01:00 +19°C° 0 mm 1 mps 642 mmHg 91%
    02:00 +19°C° 0 mm 1 mps 642 mmHg 91%
    03:00 +19°C° 0 mm 1 mps 641 mmHg 90%
    04:00 +19°C° 0 mm 1 mps 641 mmHg 90%
    05:00 +19°C° 0 mm 1 mps 642 mmHg 89%
    06:00 +19°C° 0 mm 1 mps 642 mmHg 87%
    07:00 +18°C° 0 mm 0 mps 643 mmHg 86%
    08:00 +22°C° 0 mm 1 mps 644 mmHg 78%
    09:00 +24°C° 0 mm 1 mps 644 mmHg 70%
    10:00 +26°C° 0 mm 1 mps 645 mmHg 62%
    11:00 +26°C° 0.1 mm 1 mps 645 mmHg 60%
    12:00 +27°C° 0.1 mm 1 mps 644 mmHg 59%
    13:00 +27°C° 0.1 mm 2 mps 643 mmHg 57%
    14:00 +26°C° 0.7 mm 2 mps 642 mmHg 62%
    15:00 +25°C° 0.7 mm 1 mps 642 mmHg 67%
    16:00 +25°C° 0.7 mm 1 mps 641 mmHg 72%
    17:00 +23°C° 0.6 mm 1 mps 641 mmHg 78%
    18:00 +21°C° 0.6 mm 1 mps 641 mmHg 84%
    19:00 +18°C° 0.6 mm 0 mps 641 mmHg 90%
    20:00 +18°C° 0.3 mm 0 mps 642 mmHg 91%
    21:00 +17°C° 0.3 mm 0 mps 642 mmHg 91%
    22:00 +17°C° 0.3 mm 0 mps 643 mmHg 91%
    23:00 +19°C° 0 mm 1 mps 642 mmHg 92%

    Day after tomorrow, 23 October, Monday

    Time Temperature Precipitation Wind Pressure Humidity
    00:00 +19°C° 0 mm 1 mps 642 mmHg 92%
    01:00 +19°C° 0 mm 1 mps 641 mmHg 92%
    02:00 +19°C° 0 mm 1 mps 641 mmHg 92%
    03:00 +18°C° 0 mm 1 mps 641 mmHg 92%
    04:00 +18°C° 0 mm 1 mps 640 mmHg 92%
    05:00 +19°C° 0 mm 1 mps 641 mmHg 91%
    06:00 +19°C° 0 mm 1 mps 641 mmHg 90%
    07:00 +19°C° 0 mm 1 mps 642 mmHg 89%
    08:00 +22°C° 0 mm 1 mps 643 mmHg 81%
    09:00 +24°C° 0 mm 1 mps 644 mmHg 73%
    10:00 +24°C° 0 mm 0 mps 645 mmHg 65%
    11:00 +26°C° 0.4 mm 1 mps 644 mmHg 65%
    12:00 +26°C° 0.4 mm 1 mps 643 mmHg 64%
    13:00 +26°C° 0.4 mm 1 mps 643 mmHg 64%
    14:00 +26°C° 1.1 mm 1 mps 642 mmHg 68%
    15:00 +25°C° 1.1 mm 1 mps 641 mmHg 73%
    16:00 +24°C° 1.1 mm 1 mps 640 mmHg 77%
    17:00 +23°C° 0.7 mm 1 mps 640 mmHg 82%
    18:00 +21°C° 0.7 mm 1 mps 640 mmHg 86%
    19:00 +18°C° 0.7 mm 0 mps 640 mmHg 91%
    20:00 +17°C° 0.3 mm 0 mps 641 mmHg 91%
    21:00 +17°C° 0.3 mm 0 mps 641 mmHg 92%
    22:00 +17°C° 0.3 mm 0 mps 642 mmHg 92%
    23:00 +17°C° 0 mm 0 mps 641 mmHg 92%

    24 October, Tuesday

    Time Temperature Precipitation Wind Pressure Humidity
    00:00 +19°C° 0 mm 1 mps 641 mmHg 92%
    01:00 +18°C° 0 mm 1 mps 640 mmHg 92%
    02:00 +18°C° 0.1 mm 1 mps 640 mmHg 92%
    03:00 +18°C° 0.1 mm 1 mps 640 mmHg 91%
    04:00 +18°C° 0.1 mm 1 mps 640 mmHg 91%
    05:00 +19°C° 0 mm 1 mps 640 mmHg 90%
    06:00 +19°C° 0 mm 1 mps 641 mmHg 89%
    07:00 +19°C° 0 mm 1 mps 642 mmHg 88%
    08:00 +22°C° 0.1 mm 1 mps 642 mmHg 80%
    09:00 +24°C° 0.1 mm 1 mps 643 mmHg 73%
    10:00 +26°C° 0.1 mm 1 mps 644 mmHg 65%
    11:00 +26°C° 0.3 mm 1 mps 643 mmHg 63%
    12:00 +27°C° 0.3 mm 1 mps 643 mmHg 62%
    13:00 +27°C° 0.3 mm 1 mps 642 mmHg 60%
    14:00 +26°C° 0.9 mm 1 mps 642 mmHg 63%
    15:00 +26°C° 0.9 mm 1 mps 641 mmHg 66%
    16:00 +25°C° 0.9 mm 1 mps 641 mmHg 69%
    17:00 +23°C° 0.5 mm 1 mps 641 mmHg 75%
    18:00 +21°C° 0.5 mm 1 mps 641 mmHg 82%
    19:00 +18°C° 0.5 mm 0 mps 641 mmHg 88%
    20:00 +17°C° 0.1 mm 0 mps 641 mmHg 89%
    21:00 +19°C° 0.1 mm 1 mps 641 mmHg 89%
    22:00 +19°C° 0.1 mm 1 mps 641 mmHg 89%
    23:00 +19°C° 0 mm 1 mps 641 mmHg 89%

    25 October, Wednesday

    Time Temperature Precipitation Wind Pressure Humidity
    00:00 +18°C° 0 mm 1 mps 640 mmHg 88%
    01:00 +18°C° 0 mm 1 mps 640 mmHg 88%
    02:00 +18°C° 0 mm 1 mps 640 mmHg 87%
    03:00 +18°C° 0 mm 1 mps 640 mmHg 86%
    04:00 +18°C° 0 mm 1 mps 640 mmHg 85%
    05:00 +18°C° 0 mm 1 mps 640 mmHg 84%
    06:00 +19°C° 0 mm 1 mps 641 mmHg 83%
    07:00 +19°C° 0 mm 1 mps 641 mmHg 83%
    08:00 +21°C° 0 mm 1 mps 642 mmHg 74%
    09:00 +24°C° 0 mm 1 mps 643 mmHg 65%
    10:00 +27°C° 0 mm 1 mps 644 mmHg 56%
    11:00 +27°C° 0 mm 1 mps 643 mmHg 54%
    12:00 +28°C° 0 mm 2 mps 643 mmHg 51%
    13:00 +28°C° 0 mm 2 mps 642 mmHg 49%
    14:00 +27°C° 0.6 mm 2 mps 642 mmHg 54%
    15:00 +27°C° 0.6 mm 2 mps 641 mmHg 60%
    16:00 +26°C° 0.6 mm 1 mps 641 mmHg 65%
    17:00 +24°C° 0.8 mm 1 mps 641 mmHg 72%
    18:00 +22°C° 0.8 mm 1 mps 641 mmHg 79%
    19:00 +20°C° 0.8 mm 1 mps 641 mmHg 86%
    20:00 +20°C° 0.3 mm 1 mps 641 mmHg 87%
    21:00 +20°C° 0.3 mm 1 mps 641 mmHg 88%
    22:00 +20°C° 0.3 mm 1 mps 642 mmHg 88%
    23:00 +20°C° 0.4 mm 1 mps 641 mmHg 89%

    26 October, Thursday

    Time Temperature Precipitation Wind Pressure Humidity
    00:00 +19°C° 0.4 mm 1 mps 641 mmHg 89%
    01:00 +19°C° 0.4 mm 1 mps 641 mmHg 90%
    02:00 +19°C° 0.1 mm 1 mps 641 mmHg 90%
    03:00 +19°C° 0.1 mm 1 mps 641 mmHg 89%
    04:00 +19°C° 0.1 mm 1 mps 640 mmHg 89%
    05:00 +19°C° 0 mm 1 mps 641 mmHg 87%
    06:00 +20°C° 0 mm 1 mps 641 mmHg 86%
    07:00 +20°C° 0 mm 1 mps 642 mmHg 85%
    08:00 +22°C° 0 mm 1 mps 643 mmHg 78%
    09:00 +23°C° 0 mm 1 mps 643 mmHg 71%
    10:00 +25°C° 0 mm 1 mps 644 mmHg 64%
    11:00 +26°C° 0 mm 1 mps 644 mmHg 60%
    12:00 +27°C° 0 mm 2 mps 643 mmHg 56%
    13:00 +28°C° 0 mm 2 mps 643 mmHg 52%
    14:00 +27°C° 0.3 mm 2 mps 642 mmHg 57%
    15:00 +26°C° 0.3 mm 2 mps 642 mmHg 62%
    16:00 +25°C° 0.3 mm 2 mps 641 mmHg 67%
    17:00 +24°C° 0.3 mm 1 mps 641 mmHg 74%
    18:00 +22°C° 0.3 mm 1 mps 641 mmHg 81%
    19:00 +20°C° 0.3 mm 1 mps 641 mmHg 89%
    20:00 +20°C° 0.1 mm 1 mps 641 mmHg 89%
    21:00 +19°C° 0.1 mm 1 mps 641 mmHg 90%
    22:00 +19°C° 0.1 mm 1 mps 641 mmHg 90%
    23:00 +19°C° 0 mm 1 mps 641 mmHg 89%
    Show more